Location: Homewood
(41.1836°S, 175.9581°E)
Time: 07:38:23
(UTC+00:00)

Cosmos 1703 Rocket - Visible Passes

Search period start: 18 July 2024 00:00
Search period end: 28 July 2024 00:00
Orbit: 601 x 630 km, 82.5° (Epoch: 17 July)

Date Brightness Start Highest point End Pass type
(mag) Time Alt. Az. Time Alt. Az. Time Alt. Az.
18 Jul 4.1 05:53:11 10° SSW 05:57:41 65° W 06:02:06 10° N visible
18 Jul 3.8 18:23:24 10° N 18:27:50 79° E 18:32:22 10° S visible
19 Jul 5.4 06:09:42 10° SSW 06:13:50 35° W 06:17:54 10° NNW visible
19 Jul 6.8 17:04:58 10° ENE 17:06:53 13° E 17:08:49 10° ESE visible
19 Jul 3.7 18:39:44 10° NNW 18:44:06 57° W 18:48:34 10° S visible
20 Jul 6.4 06:26:36 10° SW 06:29:53 20° W 06:33:08 10° NW visible
20 Jul 6.1 17:19:25 10° NE 17:22:52 22° E 17:26:23 10° SE visible
20 Jul 4.3 18:56:29 10° NW 19:00:27 31° WSW 19:04:31 10° SSW visible
21 Jul 7.0 06:44:35 10° WSW 06:45:51 11° W 06:47:07 10° W visible
21 Jul 5.0 17:34:47 10° NNE 17:38:56 40° E 17:43:10 10° SSE visible
22 Jul 3.8 17:50:40 10° N 17:55:06 74° E 17:59:38 10° SSE visible
23 Jul 5.4 05:36:57 10° SSW 05:41:06 37° W 05:45:11 10° NNW visible
23 Jul 6.8 16:32:28 10° ENE 16:34:10 12° E 16:35:53 10° ESE visible
23 Jul 3.6 18:06:56 10° NNW 18:11:21 60° W 18:15:51 10° S visible
24 Jul 6.5 05:53:47 10° SW 05:57:09 21° W 06:00:28 10° NW visible
24 Jul 6.1 16:46:45 10° NE 16:50:08 21° E 16:53:34 10° SE visible
24 Jul 4.2 18:23:39 10° NW 18:27:41 33° WSW 18:31:48 10° S visible
25 Jul 6.9 06:11:34 10° WSW 06:13:07 12° W 06:14:40 10° WNW visible
25 Jul 5.0 17:02:04 10° NNE 17:06:12 38° E 17:10:24 10° SSE visible
25 Jul 4.9 18:40:54 10° WNW 18:44:08 19° WSW 18:47:25 10° SSW visible
26 Jul 3.8 17:17:53 10° N 17:22:20 71° E 17:26:52 10° SSE visible
27 Jul 6.8 15:59:58 10° ENE 16:01:25 11° E 16:02:52 10° ESE visible
27 Jul 3.5 17:34:08 10° NNW 17:38:34 63° W 17:43:06 10° S visible
